Date String (YYYY-MM-DD hh:mm:ss) UTC,Instrument flags,Ambient pressure (hPa),Sample flow (lpm),Bypass flow (lpm),Sample temperature (°C),Ambient temperature (°C),ASC tube jacket temperature (°C),LED temperature (°C),Box temperature (°C),Sample RH (%),Span deviation,Mass concentration (μg/m³),Mass concentration (μg/m³),Mass concentration (μg/m³)
DateTimeUTC,F1_M11,P_M11,Q1_M11,Q2_M11,T1_M11,T2_M11,T3_M11,T4_M11,T5_M11,U1_M11,ZSPAN_M11,X0_M11,X2_M11,X1_M11
2023-01-21 19:00:00,,0826.5,5.01,0.00,22.6,21.4,00.0,31.3,24.4,11.3,0000.0,0008.79,0006.31,0006.02
2023-01-21 19:01:00,,0826.5,5.01,0.00,22.6,21.3,00.0,31.3,24.4,11.3,0000.0,0008.85,0006.33,0006.03
2023-01-21 19:02:00,,0826.5,5.02,0.00,22.6,21.3,00.0,31.3,24.4,11.4,0000.0,0008.91,0006.38,0006.08
2023-01-21 19:03:00,,0826.5,4.99,0.00,22.6,21.3,00.0,31.3,24.4,11.8,0000.0,0008.95,0006.39,0006.09
2023-01-21 19:04:00,,0826.5,5.01,0.00,22.6,21.2,00.0,31.3,24.3,12.0,0000.0,0008.92,0006.38,0006.08
2023-01-21 19:05:00,,0826.4,5.03,0.00,22.6,21.2,00.0,31.3,24.3,12.0,0000.0,0008.93,0006.34,0006.05
2023-01-21 19:06:00,,0826.4,5.00,0.00,22.6,21.1,00.0,31.3,24.3,12.1,0000.0,0009.04,0006.32,0006.02
2023-01-21 19:07:00,,0826.4,5.02,0.00,22.6,21.1,00.0,31.3,24.2,12.3,0000.0,0009.00,0006.31,0006.00
2023-01-21 19:08:00,,0826.3,5.03,0.00,22.6,21.0,00.0,31.3,24.2,12.3,0000.0,0008.89,0006.29,0005.95
2023-01-21 19:09:00,,0826.4,5.01,0.00,22.5,21.0,00.0,31.3,24.2,12.2,0000.0,0008.74,0006.21,0005.90
2023-01-21 19:10:00,,0826.4,4.98,0.00,22.5,21.0,00.0,31.3,24.1,12.3,0000.0,0008.72,0006.17,0005.86
2023-01-21 19:11:00,,0826.4,5.02,0.00,22.5,21.0,00.0,31.3,24.1,12.5,0000.0,0008.76,0006.15,0005.83
2023-01-21 19:12:00,,0826.3,5.00,0.00,22.5,21.0,00.0,31.3,24.1,12.5,0000.0,0008.71,0006.09,0005.77
2023-01-21 19:13:00,,0826.4,5.01,0.00,22.5,20.9,00.0,31.3,24.1,12.3,0000.0,0008.60,0006.02,0005.72
2023-01-21 19:14:00,,0826.3,5.00,0.00,22.4,20.9,00.0,31.3,24.1,12.4,0000.0,0008.51,0005.99,0005.69
2023-01-21 19:15:00,,0826.3,4.97,0.00,22.4,21.0,00.0,31.3,24.1,12.6,0000.0,0008.65,0005.99,0005.68
2023-01-21 19:16:00,,0826.3,4.99,0.00,22.4,21.0,00.0,31.3,24.1,12.6,0000.0,0008.63,0006.00,0005.68
2023-01-21 19:17:00,,0826.2,5.02,0.00,22.4,21.1,00.0,31.3,24.1,12.9,0000.0,0008.58,0005.99,0005.67
2023-01-21 19:18:00,,0826.3,4.99,0.00,22.4,21.0,00.0,31.2,24.1,13.1,0000.0,0008.57,0005.96,0005.63
2023-01-21 19:19:00,,0826.2,5.00,0.00,22.4,20.9,00.0,31.2,24.1,13.1,0000.0,0008.44,0005.88,0005.57
2023-01-21 19:20:00,,0826.2,5.01,0.00,22.4,21.1,00.0,31.2,24.1,13.2,0000.0,0008.33,0005.79,0005.50
2023-01-21 19:21:00,,0826.2,5.01,0.00,22.5,22.1,00.0,31.2,24.4,13.1,0000.0,0008.31,0005.72,0005.42
2023-01-21 19:22:00,,0826.2,4.99,0.00,22.6,22.8,00.0,31.2,24.6,13.0,0000.0,0008.28,0005.62,0005.35
2023-01-21 19:23:00,,0826.2,5.00,0.00,22.7,22.6,00.0,31.3,24.6,13.0,0000.0,0008.20,0005.58,0005.31
2023-01-21 19:24:00,,0826.2,5.00,0.00,22.7,22.2,00.0,31.3,24.5,13.0,0000.0,0008.18,0005.55,0005.27
2023-01-21 19:25:00,,0826.2,5.02,0.00,22.7,21.8,00.0,31.3,24.4,13.0,0000.0,0008.14,0005.50,0005.20
2023-01-21 19:26:00,,0826.2,4.99,0.00,22.6,21.6,00.0,31.3,24.4,13.1,0000.0,0008.30,0005.47,0005.16
2023-01-21 19:27:00,,0826.2,5.00,0.00,22.6,21.4,00.0,31.3,24.3,13.2,0000.0,0008.46,0005.44,0005.12
2023-01-21 19:28:00,,0826.2,5.01,0.00,22.6,21.2,00.0,31.3,24.3,13.2,0000.0,0008.39,0005.42,0005.10
2023-01-21 19:29:00,,0826.1,5.02,0.00,22.6,21.1,00.0,31.3,24.2,13.2,0000.0,0008.31,0005.40,0005.10
2023-01-21 19:30:00,,0826.2,5.00,0.00,22.6,21.1,00.0,31.3,24.2,13.3,0000.0,0008.28,0005.40,0005.11
2023-01-21 19:31:00,,0826.2,5.00,0.00,22.6,21.0,00.0,31.3,24.2,13.5,0000.0,0008.36,0005.45,0005.13
2023-01-21 19:32:00,,0826.2,4.99,0.00,22.6,21.0,00.0,31.3,24.2,13.4,0000.0,0008.35,0005.45,0005.14
2023-01-21 19:33:00,,0826.2,4.99,0.00,22.5,21.0,00.0,31.3,24.2,13.2,0000.0,0008.15,0005.47,0005.16
2023-01-21 19:34:00,,0826.2,5.01,0.00,22.5,21.0,00.0,31.3,24.1,13.2,0000.0,0008.25,0005.50,0005.17
2023-01-21 19:35:00,,0826.2,5.00,0.00,22.5,21.0,00.0,31.3,24.1,13.2,0000.0,0008.25,0005.49,0005.18
2023-01-21 19:36:00,,0826.1,5.00,0.00,22.5,21.0,00.0,31.3,24.2,13.3,0000.0,0008.32,0005.52,0005.18
2023-01-21 19:37:00,,0826.0,5.01,0.00,22.5,21.0,00.0,31.3,24.1,13.2,0000.0,0008.42,0005.48,0005.18
2023-01-21 19:38:00,,0826.0,5.01,0.00,22.5,21.0,00.0,31.3,24.1,13.2,0000.0,0008.64,0005.47,0005.17
2023-01-21 19:39:00,,0826.0,4.98,0.00,22.5,21.0,00.0,31.3,24.1,13.1,0000.0,0008.63,0005.44,0005.16
2023-01-21 19:40:00,,0826.0,4.99,0.00,22.4,20.9,00.0,31.3,24.1,13.2,0000.0,0008.79,0005.44,0005.15
2023-01-21 19:41:00,,0826.0,5.00,0.00,22.4,20.9,00.0,31.3,24.1,13.2,0000.0,0009.48,0005.43,0005.14
2023-01-21 19:42:00,,0825.9,5.01,0.00,22.4,20.9,00.0,31.3,24.1,13.3,0000.0,0009.44,0005.40,0005.14
2023-01-21 19:43:00,,0825.9,5.00,0.00,22.4,20.9,00.0,31.2,24.1,13.4,0000.0,0009.47,0005.42,0005.14
2023-01-21 19:44:00,,0825.9,5.00,0.00,22.4,20.9,00.0,31.2,24.1,13.5,0000.0,0009.63,0005.41,0005.14
2023-01-21 19:45:00,,0825.8,5.01,0.00,22.4,20.8,00.0,31.2,24.1,13.5,0000.0,0009.54,0005.38,0005.14
2023-01-21 19:46:00,,0825.8,5.01,0.00,22.4,20.9,00.0,31.2,24.1,13.4,0000.0,0009.64,0005.40,0005.13
2023-01-21 19:47:00,,0825.8,5.00,0.00,22.4,20.9,00.0,31.2,24.0,13.2,0000.0,0009.64,0005.38,0005.13
2023-01-21 19:48:00,,0826.0,4.99,0.00,22.4,21.1,00.0,31.2,24.1,13.2,0000.0,0009.40,0005.39,0005.14
2023-01-21 19:49:00,,0826.2,5.00,0.00,22.5,21.9,00.0,31.2,24.3,13.2,0000.0,0009.07,0005.39,0005.15
2023-01-21 19:50:00,,0826.0,5.00,0.00,22.6,22.8,00.0,31.2,24.5,13.2,0000.0,0009.15,0005.46,0005.19
2023-01-21 19:51:00,,0826.0,4.99,0.00,22.7,22.7,00.0,31.3,24.6,12.9,0000.0,0009.03,0005.48,0005.22
2023-01-21 19:52:00,,0825.7,5.00,0.00,22.7,22.4,00.0,31.3,24.6,12.9,0000.0,0008.55,0005.51,0005.24
2023-01-21 19:53:00,,0825.7,5.02,0.00,22.7,22.1,00.0,31.3,24.6,13.0,0000.0,0008.58,0005.55,0005.29
2023-01-21 19:54:00,,0825.7,5.01,0.00,22.7,21.9,00.0,31.3,24.5,13.0,0000.0,0008.68,0005.58,0005.32
2023-01-21 19:55:00,,0825.7,4.99,0.00,22.7,21.8,00.0,31.3,24.5,13.0,0000.0,0008.61,0005.61,0005.35
2023-01-21 19:56:00,,0825.7,5.00,0.00,22.7,21.6,00.0,31.4,24.5,12.9,0000.0,0008.94,0005.66,0005.39
2023-01-21 19:57:00,,0825.7,4.98,0.00,22.7,21.6,00.0,31.4,24.5,12.9,0000.0,0008.83,0005.65,0005.40
2023-01-21 19:58:00,,0825.6,5.01,0.00,22.7,21.5,00.0,31.4,24.5,12.9,0000.0,0008.88,0005.69,0005.44
2023-01-21 19:59:00,,0825.6,5.00,0.00,22.7,21.5,00.0,31.4,24.4,12.9,0000.0,0009.18,0005.73,0005.47
